QPF
0.00 0.00 0.00 0.00 0.00 0.00 0.00 0.00 0.00 0.00 0.00 0.00 0.00 0.00 0.00 0.00 0.00 0.00 0.00 0.00 0.00 0.00 0.00 0.00 0.00 0.00 0.00 0.00 0.00 0.00 0.00 0.00 0.00 0.00 0.00 0.00 0.00 0.00 0.00 0.00 0.00 0.00 0.00 0.00 0.00
0.00 0.00 0.00 0.00 0.00 0.00 0.00 0.00 0.00 0.00 0.00 0.00 0.00 0.00 0.00 0.00 0.00 0.00 0.00 0.00 0.00 0.00 0.00 0.00 0.00 0.00 0.00 0.00 0.00 0.00 0.00 0.00 0.00 0.00 0.00 0.00 0.00 0.00 0.00 0.00 0.00 0.00 0.00 0.00 0.00
0.00 0.00 0.00 0.00 0.00 0.00 0.00 0.00 0.00 0.00 0.00 0.00 0.00 0.00 0.00 0.00 0.00 0.00 0.00 0.00 0.00 0.00 0.00 0.00 0.00 0.00 0.00 0.00 0.00 0.00 0.00 0.00 0.00 0.00 0.00 0.00 0.00 0.00 0.00 0.00 0.00 0.00 0.00 0.00 0.00
0.00 0.00 0.00 0.00 0.00 0.00 0.00 0.00 0.00 0.00 0.00 0.00 0.00 0.00 0.00 0.00 0.00 0.00 0.00 0.00 0.00 0.00 0.00 0.00 0.00 0.00 0.00 0.00 0.00 0.00 0.00 0.00 0.00 0.00 0.00 0.00 0.00 0.00 0.00 0.00 0.00 0.00 0.00 0.00 0.00
0.00 0.00 0.00 0.00 0.00 0.00 0.00 0.00 0.00 0.00 0.00 0.00 0.00 0.00 0.00 0.00 0.00 0.00 0.00 0.00 0.00 0.00 0.00 0.00 0.00 0.00 0.00 0.00 0.00 0.00 0.00 0.00 0.00 0.00 0.00 0.00 0.00 0.00 0.00 0.00 0.00 0.00 0.00 0.00 0.00
0.00 0.00 0.00 0.00 0.00 0.00 0.00 0.00 0.00 0.00 0.00 0.00 0.00 0.00 0.00 0.00 0.00 0.00 0.00 0.00 0.00 0.00 0.00 0.00 0.00 0.00 0.00 0.00 0.00 0.00 0.00 0.00 0.00 0.00 0.00 0.00 0.00 0.00 0.00 0.00 0.00 0.00 0.00 0.00 0.00
0.00 0.00 0.00 0.00 0.00 0.00 0.00 0.00 0.00 0.00 0.00 0.00 0.00 0.00 0.00 0.00 0.00 0.00 0.00 0.00 0.00 0.00 0.00 0.00 0.00 0.00 0.00 0.00 0.00 0.00 0.00 0.00 0.00 0.00 0.00 0.00 0.00 0.00 0.00 0.00 0.00 0.00 0.00 0.00 0.00
0.00 0.00 0.00 0.00 0.00 0.00 0.00 0.00 0.00 0.00 0.00 0.00 0.00 0.00 0.00 0.00 0.00 0.00 0.00 0.00 0.00 0.00 0.00 0.00 0.00 0.00 0.00 0.00 0.00 0.00 0.00 0.00 0.00 0.00 0.00 0.00 0.00 0.00 0.00 0.00 0.00 0.00 0.00 0.00 0.00
0.00 0.00 0.00 0.00 0.00 0.00 0.00 0.00 0.00 0.00 0.00 0.00 0.00 0.00 0.00 0.00 0.00 0.00 0.00 0.00 0.00 0.00 0.00 0.00 0.00 0.00 0.00 0.00 0.00 0.00 0.00 0.00 0.00 0.00 0.00 0.00 0.00 0.00 0.00 0.00 0.00 0.00 0.00 0.00 0.00
0.00 0.00 0.00 0.00 0.00 0.00 0.00 0.00 0.00 0.00 0.00 0.00 0.00 0.00 0.00 0.00 0.00 0.00 0.00 0.00 0.00 0.00 0.00 0.00 0.00 0.00 0.00 0.00 0.00 0.00 0.00 0.00 0.00 0.00 0.00 0.00 0.00 0.00 0.00 0.00 0.00 0.00 0.00 0.00 0.00
0.00 0.00 0.00 0.00 0.00 0.00 0.00 0.00 0.00 0.00 0.00 0.00 0.00 0.00 0.00 0.00 0.00 0.00 0.00 0.00 0.00 0.00 0.00 0.00 0.00 0.00 0.00 0.00 0.00 0.00 0.00 0.00 0.00 0.00 0.00 0.00 0.00 0.00 0.00 0.00 0.00 0.00 0.00 0.00 0.00
0.00 0.00 0.00 0.00 0.00 0.00 0.00 0.00 0.00 0.00 0.00 0.00 0.00 0.00 0.00 0.00 0.00 0.00 0.00 0.00 0.00 0.00 0.00 0.00 0.00 0.00 0.00 0.00 0.00 0.00 0.00 0.00 0.00 0.00 0.00 0.00 0.00 0.00 0.00 0.00 0.00 0.00 0.00 0.00 0.00
0.00 0.00 0.00 0.00 0.00 0.00 0.00 0.00 0.00 0.00 0.00 0.00 0.00 0.00 0.00 0.00 0.00 0.00 0.00 0.00 0.00 0.00 0.00 0.00 0.00 0.00 0.00 0.00 0.00 0.00 0.00 0.00 0.00 0.00 0.00 0.00 0.00 0.00 0.00 0.00 0.00 0.00 0.00 0.00 0.00
0.00 0.00 0.00 0.00 0.00 0.00 0.00 0.00 0.00 0.00 0.00 0.00 0.00 0.00 0.00 0.00 0.00 0.00 0.00 0.00 0.00 0.00 0.00 0.00 0.00 0.00 0.00 0.00 0.00 0.00 0.00 0.00 0.00 0.00 0.00 0.00 0.00 0.00 0.00 0.00 0.00 0.00 0.00 0.00 0.00
0.00 0.00 0.00 0.00 0.00 0.00 0.00 0.00 0.00 0.00 0.00 0.00 0.00 0.00 0.00 0.00 0.00 0.00 0.00 0.00 0.00 0.00 0.00 0.00 0.00 0.00 0.00 0.00 0.00 0.00 0.00 0.00 0.00 0.00 0.00 0.00 0.00 0.00 0.00 0.00 0.00 0.00 0.00 0.00 0.00
0.00 0.00 0.00 0.00 0.00 0.00 0.00 0.00 0.00 0.00 0.00 0.00 0.00 0.00 0.00 0.00 0.00 0.00 0.00 0.00 0.00 0.00 0.00 0.00 0.00 0.00 0.00 0.00 0.00 0.00 0.00 0.00 0.00 0.00 0.00 0.00 0.00 0.00 0.00 0.00 0.00 0.00 0.00 0.00 0.00
0.00 0.00 0.00 0.00 0.00 0.00 0.00 0.00 0.00 0.00 0.00 0.00 0.00 0.00 0.00 0.00 0.00 0.00 0.00 0.00 0.00 0.00 0.00 0.00 0.00 0.00 0.00 0.00 0.00 0.00 0.00 0.00 0.00 0.00 0.00 0.00 0.00 0.00 0.00 0.00 0.00 0.00 0.00 0.00 0.00
0.00 0.00 0.00 0.00 0.00 0.00 0.00 0.00 0.00 0.00 0.00 0.00 0.00 0.00 0.00 0.00 0.00 0.00 0.00 0.00 0.00 0.00 0.00 0.00 0.00 0.00 0.00 0.00 0.00 0.00 0.00 0.00 0.00 0.00 0.00 0.00 0.00 0.00 0.00 0.00 0.00 0.00 0.00 0.00 0.00
0.01 0.00 0.00 0.00 0.00 0.00 0.00 0.00 0.00 0.00 0.00 0.00 0.00 0.00 0.00 0.00 0.00 0.00 0.00 0.00 0.00 0.00 0.00 0.00 0.00 0.00 0.00 0.00 0.00 0.00 0.00 0.00 0.00 0.00 0.00 0.00 0.00 0.00 0.00 0.00 0.00 0.00 0.00 0.00 0.00
0.01 0.00 0.00 0.00 0.00 0.00 0.00 0.00 0.00 0.00 0.00 0.00 0.00 0.00 0.00 0.00 0.00 0.00 0.00 0.00 0.00 0.00 0.00 0.00 0.00 0.00 0.00 0.00 0.00 0.00 0.00 0.00 0.00 0.00 0.00 0.00 0.00 0.00 0.00 0.00 0.00 0.00 0.00 0.00 0.00
0.01 0.01 0.00 0.00 0.00 0.00 0.00 0.00 0.00 0.00 0.00 0.00 0.00 0.00 0.00 0.00 0.00 0.00 0.00 0.00 0.00 0.00 0.00 0.00 0.00 0.00 0.00 0.00 0.00 0.00 0.00 0.00 0.00 0.00 0.00 0.00 0.00 0.00 0.00 0.00 0.00 0.00 0.00 0.00 0.00
0.02 0.02 0.00 0.00 0.00 0.00 0.00 0.00 0.00 0.00 0.00 0.00 0.00 0.00 0.00 0.00 0.00 0.00 0.00 0.00 0.00 0.00 0.00 0.00 0.00 0.00 0.00 0.00 0.00 0.00 0.00 0.00 0.00 0.00 0.00 0.00 0.00 0.00 0.00 0.00 0.00 0.00 0.00 0.00 0.00
0.02 0.01 0.00 0.00 0.01 0.00 0.00 0.00 0.00 0.00 0.00 0.00 0.00 0.00 0.00 0.00 0.00 0.00 0.00 0.00 0.00 0.00 0.00 0.00 0.00 0.00 0.00 0.00 0.00 0.00 0.00 0.00 0.00 0.00 0.00 0.00 0.00 0.00 0.00 0.00 0.00 0.00 0.00 0.00 0.00
0.02 0.03 0.00 0.00 0.00 0.00 0.00 0.00 0.00 0.00 0.00 0.00 0.00 0.00 0.00 0.00 0.00 0.00 0.00 0.00 0.00 0.00 0.00 0.00 0.00 0.00 0.00 0.00 0.00 0.00 0.00 0.00 0.00 0.00 0.00 0.00 0.00 0.00 0.00 0.00 0.00 0.00 0.00 0.00 0.00
0.02 0.02 0.01 0.01 0.00 0.00 0.00 0.00 0.00 0.00 0.00 0.00 0.00 0.00 0.00 0.00 0.00 0.00 0.00 0.00 0.00 0.00 0.00 0.00 0.00 0.00 0.00 0.00 0.00 0.00 0.00 0.00 0.00 0.00 0.00 0.00 0.00 0.00 0.00 0.00 0.00 0.00 0.00 0.00 0.00
0.02 0.02 0.00 0.00 0.00 0.00 0.00 0.00 0.00 0.00 0.00 0.00 0.00 0.00 0.00 0.00 0.00 0.00 0.00 0.00 0.00 0.00 0.00 0.00 0.00 0.00 0.00 0.00 0.00 0.00 0.00 0.00 0.00 0.00 0.00 0.00 0.00 0.00 0.00 0.00 0.00 0.00 0.00 0.00 0.00
0.02 0.01 0.00 0.00 0.00 0.00 0.00 0.00 0.00 0.00 0.00 0.00 0.00 0.00 0.00 0.00 0.00 0.00 0.00 0.00 0.00 0.00 0.00 0.00 0.00 0.00 0.00 0.00 0.00 0.00 0.00 0.00 0.00 0.00 0.00 0.00 0.00 0.00 0.00 0.00 0.00 0.00 0.00 0.00 0.00
MSLP
1019.11 1018.88 1018.50 1018.19 1017.84 1017.50 1017.12 1016.78 1016.55 1016.31 1016.09 1015.83 1015.49 1015.21 1014.98 1014.77 1014.55 1014.53 1013.60 1012.70 1012.80 1013.14 1013.29 1013.10 1013.10 1013.02 1013.03 1012.80 1012.92 1012.77 1012.52 1011.14 1009.97 1009.47 1009.51 1009.87 1010.32 1010.72 1011.12 1011.52 1011.76 1012.23 1012.75 1013.69 1014.47
1019.44 1019.23 1018.96 1018.51 1018.12 1017.74 1017.41 1017.04 1016.69 1016.36 1016.12 1015.87 1015.54 1015.21 1014.97 1014.85 1014.45 1013.45 1012.13 1012.31 1012.79 1013.20 1013.27 1012.94 1012.54 1012.68 1012.80 1012.46 1012.69 1012.62 1011.88 1010.59 1009.60 1009.42 1009.66 1009.86 1010.48 1010.83 1011.39 1011.36 1011.55 1012.00 1012.98 1013.84 1014.71
1019.74 1019.42 1019.12 1018.84 1018.41 1017.92 1017.55 1017.20 1016.81 1016.44 1016.05 1015.74 1015.52 1015.21 1014.96 1014.82 1014.29 1012.33 1012.24 1012.30 1012.77 1013.03 1012.96 1012.75 1012.52 1012.44 1012.43 1012.02 1012.02 1011.76 1011.25 1010.16 1009.81 1009.83 1009.95 1010.21 1010.34 1010.68 1011.15 1011.24 1010.87 1011.22 1012.24 1013.38 1014.50
1020.00 1019.70 1019.29 1018.93 1018.58 1018.08 1017.62 1017.21 1016.76 1016.38 1016.06 1015.70 1015.39 1015.10 1014.81 1014.63 1013.85 1012.29 1012.32 1012.38 1012.65 1012.73 1012.80 1012.57 1012.50 1012.45 1012.25 1011.82 1011.47 1011.61 1010.77 1010.43 1010.15 1010.26 1010.69 1010.79 1010.54 1010.54 1010.60 1010.21 1010.11 1010.29 1010.75 1012.13 1013.39
1020.12 1019.84 1019.53 1019.10 1018.63 1018.12 1017.60 1017.09 1016.68 1016.22 1015.80 1015.45 1015.18 1015.00 1014.80 1014.15 1012.60 1012.35 1012.47 1012.55 1012.63 1012.69 1012.49 1012.40 1012.34 1012.22 1011.91 1011.27 1011.18 1011.37 1010.91 1010.56 1010.34 1010.63 1011.01 1011.06 1010.89 1011.02 1009.92 1009.71 1009.80 1010.12 1010.52 1011.66 1012.40
1020.02 1019.85 1019.57 1019.27 1018.77 1018.17 1017.53 1016.99 1016.48 1016.03 1015.63 1015.20 1014.95 1014.91 1014.74 1013.28 1011.65 1011.93 1012.24 1012.62 1012.35 1012.43 1012.22 1012.12 1011.81 1011.86 1011.76 1011.52 1011.35 1011.22 1011.14 1010.80 1010.55 1010.68 1011.02 1011.34 1011.05 1011.14 1008.92 1008.88 1009.28 1009.60 1010.08 1010.79 1011.48
1019.85 1019.74 1019.50 1019.17 1018.77 1018.20 1017.52 1016.89 1016.25 1015.72 1015.38 1014.91 1014.72 1014.51 1013.74 1011.89 1011.17 1011.59 1011.95 1012.05 1012.11 1012.16 1012.09 1011.77 1011.89 1012.06 1011.80 1011.54 1011.19 1011.44 1011.51 1010.72 1010.09 1010.13 1010.84 1011.11 1011.07 1009.98 1008.19 1008.60 1008.86 1009.12 1009.29 1009.75 1010.27
1019.68 1019.53 1019.28 1018.96 1018.55 1018.06 1017.40 1016.54 1015.92 1015.37 1014.82 1014.40 1014.44 1014.20 1012.91 1011.52 1011.43 1011.69 1011.74 1012.06 1012.15 1012.14 1012.19 1012.09 1012.26 1012.18 1011.97 1011.85 1011.64 1011.68 1011.33 1010.53 1009.11 1009.24 1010.93 1011.43 1009.87 1008.45 1007.67 1008.02 1008.37 1008.57 1008.93 1009.07 1009.28
1019.44 1019.30 1019.11 1018.64 1018.19 1017.75 1017.01 1015.97 1015.19 1014.74 1014.45 1014.27 1014.22 1013.70 1012.41 1011.86 1011.57 1011.41 1011.69 1011.65 1011.95 1012.14 1012.23 1012.39 1012.43 1012.17 1012.16 1012.10 1011.83 1011.02 1010.69 1009.95 1009.13 1008.87 1010.12 1010.87 1009.24 1007.74 1007.26 1007.28 1007.86 1008.16 1008.26 1008.26 1007.97
1019.26 1019.13 1018.91 1018.53 1017.98 1017.40 1016.49 1014.92 1014.13 1014.49 1014.19 1013.83 1013.31 1013.40 1011.74 1011.39 1011.40 1011.34 1011.57 1011.78 1011.97 1012.22 1012.45 1012.43 1012.37 1012.13 1011.82 1011.78 1011.06 1010.05 1009.96 1009.36 1008.98 1009.27 1009.82 1010.16 1009.04 1007.93 1007.51 1007.61 1007.61 1007.55 1007.15 1006.96 1006.99
1018.92 1018.83 1018.69 1018.33 1017.78 1017.33 1016.34 1014.59 1014.53 1014.79 1013.72 1012.50 1011.90 1011.11 1010.83 1011.36 1011.49 1011.64 1011.46 1011.63 1011.82 1012.24 1012.03 1011.69 1011.81 1010.83 1009.81 1010.15 1009.67 1009.44 1009.29 1009.17 1008.07 1008.22 1009.12 1008.99 1008.50 1007.78 1007.15 1006.92 1006.88 1006.53 1005.96 1005.76 1005.51
1018.60 1018.56 1018.48 1018.14 1017.58 1016.99 1016.91 1015.58 1016.22 1016.76 1014.82 1012.26 1011.53 1010.96 1010.66 1010.89 1011.17 1010.92 1011.01 1011.48 1011.45 1011.27 1011.64 1011.45 1010.15 1009.35 1009.63 1009.42 1009.39 1009.31 1009.04 1008.42 1007.81 1007.68 1008.30 1008.31 1007.82 1007.14 1007.03 1006.10 1005.76 1005.52 1005.08 1004.45 1004.68
1018.19 1018.17 1018.14 1017.85 1017.32 1016.61 1016.59 1016.59 1016.27 1015.90 1014.97 1011.63 1010.19 1010.12 1010.29 1010.44 1009.90 1009.84 1010.81 1010.49 1010.29 1010.58 1010.28 1009.23 1008.42 1008.99 1009.48 1009.33 1009.55 1008.73 1009.04 1008.51 1008.45 1008.42 1008.75 1008.67 1007.82 1007.06 1005.97 1005.22 1004.87 1004.34 1003.80 1003.63 1003.97
1017.95 1017.86 1018.08 1017.76 1017.64 1016.97 1016.62 1016.83 1016.39 1016.00 1013.95 1010.71 1009.85 1010.20 1010.51 1010.69 1010.44 1009.75 1009.97 1010.08 1010.08 1009.36 1009.71 1008.55 1008.23 1008.23 1008.76 1008.77 1009.45 1008.11 1008.53 1008.71 1008.90 1009.36 1008.80 1008.20 1006.48 1005.68 1005.07 1004.69 1004.29 1003.44 1002.94 1002.81 1003.03
1017.55 1017.38 1017.88 1018.08 1018.05 1017.19 1017.15 1016.82 1016.50 1016.13 1013.05 1009.75 1010.07 1010.64 1010.86 1011.14 1011.10 1010.95 1010.83 1010.50 1009.75 1009.61 1009.46 1007.68 1007.96 1008.06 1008.44 1007.91 1009.14 1008.03 1008.82 1009.19 1009.57 1009.71 1009.16 1008.62 1008.12 1003.74 1003.89 1003.83 1003.24 1002.74 1002.19 1001.83 1002.32
1016.99 1017.07 1017.55 1017.77 1017.69 1016.97 1016.94 1017.06 1016.74 1015.94 1011.44 1009.55 1009.50 1009.87 1010.48 1010.67 1010.86 1011.34 1011.39 1011.28 1010.62 1010.22 1009.23 1008.02 1008.31 1008.72 1008.34 1008.76 1009.05 1009.46 1009.55 1009.83 1010.16 1010.42 1008.69 1008.11 1007.45 1002.31 1002.58 1002.13 1001.88 1001.72 1001.51 1001.07 1001.90
1016.48 1016.30 1017.04 1016.79 1017.02 1017.07 1016.97 1017.10 1016.62 1013.38 1009.64 1008.71 1008.68 1009.09 1009.39 1009.75 1010.07 1010.46 1011.00 1010.98 1010.53 1010.43 1009.14 1008.01 1007.80 1008.19 1008.86 1009.57 1009.70 1010.01 1010.47 1010.97 1010.89 1010.47 1006.60 1005.49 1004.87 1001.43 1000.88 1000.66 1000.52 1000.75 1000.64 1000.64 1001.83
1015.90 1016.03 1016.12 1016.11 1016.47 1017.19 1017.57 1017.70 1015.09 1009.82 1009.11 1007.93 1008.32 1008.70 1009.10 1008.91 1009.32 1009.67 1009.82 1009.72 1009.71 1009.21 1008.78 1007.97 1007.15 1007.39 1007.56 1008.22 1008.52 1009.46 1009.94 1010.22 1010.14 1009.09 1005.56 1004.69 1001.56 1000.22 999.55 999.24 999.16 999.47 999.45 1000.47 1001.49
1015.37 1015.49 1015.74 1015.80 1016.28 1016.95 1017.43 1017.59 1011.91 1010.16 1008.96 1008.78 1008.27 1007.97 1008.38 1008.30 1008.56 1009.14 1009.05 1008.01 1007.49 1007.90 1007.93 1006.91 1006.34 1006.33 1006.76 1007.62 1008.41 1008.91 1009.46 1008.69 1009.46 1008.20 1007.25 1002.89 1000.78 999.46 998.88 998.77 998.81 998.94 999.67 1000.73 1001.53
1015.25 1015.19 1014.50 1014.81 1016.08 1017.30 1017.39 1014.39 1011.32 1010.43 1009.78 1009.42 1009.04 1008.36 1007.70 1007.90 1008.24 1008.60 1007.85 1006.53 1006.74 1006.48 1006.22 1005.79 1006.00 1006.59 1008.07 1008.37 1008.19 1008.35 1007.97 1008.94 1008.88 1008.36 1006.50 1001.56 1000.87 999.25 999.13 998.39 998.71 999.41 1000.03 1000.59 1001.36
1015.25 1014.66 1013.68 1014.27 1015.55 1016.36 1015.75 1012.96 1011.52 1010.66 1010.18 1010.06 1009.41 1009.30 1008.49 1008.40 1008.19 1007.75 1007.08 1006.03 1005.49 1005.62 1005.74 1006.44 1007.00 1007.57 1008.26 1008.18 1007.67 1008.28 1007.96 1007.74 1007.56 1006.53 1004.88 1003.26 999.01 997.68 997.62 997.71 998.22 999.23 999.60 1000.29 1000.78
1014.62 1014.68 1014.33 1014.36 1015.66 1014.49 1013.78 1012.21 1011.42 1009.74 1010.13 1009.57 1009.47 1009.62 1009.85 1009.50 1008.65 1008.91 1008.50 1007.83 1006.84 1007.32 1006.67 1006.50 1006.82 1007.19 1006.38 1005.92 1006.15 1006.17 1005.74 1006.07 1006.23 1004.77 1003.98 1002.73 997.19 997.82 997.50 997.68 998.08 998.91 999.25 999.38 999.75
1014.41 1013.99 1014.51 1014.00 1013.16 1013.06 1013.17 1011.79 1011.29 1010.23 1009.56 1009.40 1009.06 1009.14 1009.48 1009.67 1009.50 1008.69 1008.24 1007.27 1007.31 1008.13 1008.68 1008.44 1008.72 1008.55 1006.96 1006.58 1006.34 1006.16 1005.45 1005.15 1004.72 1004.52 1003.47 1001.52 997.25 997.57 997.41 997.59 997.70 998.22 998.66 999.09 999.29
1015.25 1014.06 1014.12 1013.41 1012.02 1011.79 1011.94 1011.34 1011.05 1009.89 1009.61 1009.23 1008.78 1009.18 1009.57 1009.33 1009.20 1008.29 1008.06 1007.46 1007.47 1007.51 1008.51 1009.70 1010.03 1009.75 1008.68 1006.78 1005.89 1006.22 1005.60 1005.31 1005.13 1004.42 1002.06 1001.27 998.75 996.76 997.11 997.35 996.78 997.18 998.00 998.41 998.55
1015.31 1013.47 1012.89 1013.00 1012.32 1011.15 1010.69 1010.07 1009.68 1009.41 1008.68 1008.50 1007.97 1007.99 1008.69 1008.35 1008.55 1008.00 1007.62 1007.07 1007.25 1007.81 1009.09 1010.01 1009.32 1009.32 1008.35 1008.08 1007.10 1006.32 1005.94 1005.34 1005.33 1004.51 1003.52 1000.87 999.85 997.89 995.47 996.86 995.92 996.43 996.29 997.19 997.60
1015.51 1014.43 1013.93 1013.32 1012.45 1011.89 1011.10 1010.43 1009.29 1008.37 1008.94 1007.45 1007.49 1007.42 1007.21 1007.03 1006.50 1005.29 1006.21 1006.38 1005.83 1006.32 1007.65 1008.38 1008.25 1008.28 1007.17 1006.92 1006.50 1005.62 1005.28 1004.82 1003.56 1002.94 1002.14 1000.61 998.81 996.48 996.00 995.42 995.29 995.34 995.80 996.23 996.64
1014.80 1015.31 1015.57 1014.05 1013.07 1012.61 1010.94 1010.07 1010.19 1010.21 1008.45 1008.91 1007.65 1007.20 1006.29 1005.37 1004.86 1004.01 1004.38 1004.48 1004.43 1005.34 1006.33 1006.88 1007.08 1006.89 1005.46 1005.30 1005.21 1004.57 1002.25 1001.04 1001.15 1000.59 999.01 998.72 996.20 993.87 994.94 994.43 993.12 994.01 994.56 995.04 995.37
Thickness
5716 5718 5721 5724 5727 5731 5734 5737 5739 5741 5742 5744 5747 5750 5751 5752 5754 5754 5752 5763 5762 5759 5756 5755 5751 5748 5746 5741 5740 5739 5708 5710 5728 5736 5738 5741 5734 5738 5737 5730 5731 5728 5727 5721 5717
5709 5712 5715 5719 5723 5725 5728 5732 5735 5737 5739 5741 5743 5746 5748 5749 5752 5753 5769 5767 5762 5757 5753 5747 5745 5744 5733 5737 5733 5722 5712 5727 5747 5746 5740 5741 5734 5733 5726 5724 5724 5726 5723 5719 5713
5701 5705 5709 5712 5716 5720 5723 5726 5729 5732 5735 5738 5740 5742 5744 5745 5745 5760 5765 5763 5758 5755 5753 5751 5748 5743 5731 5739 5734 5731 5717 5743 5745 5746 5744 5738 5736 5738 5725 5715 5731 5725 5725 5716 5710
5693 5697 5701 5705 5708 5713 5717 5720 5724 5727 5730 5733 5736 5739 5741 5744 5722 5760 5759 5758 5755 5753 5748 5744 5739 5729 5724 5724 5737 5721 5736 5738 5743 5740 5733 5727 5738 5732 5728 5731 5745 5742 5741 5726 5714
5685 5689 5692 5697 5701 5705 5710 5715 5718 5722 5726 5729 5731 5733 5736 5734 5744 5754 5753 5752 5750 5747 5742 5736 5729 5726 5719 5731 5735 5721 5729 5738 5739 5734 5727 5728 5722 5723 5729 5739 5741 5741 5735 5723 5719
5681 5683 5686 5689 5694 5699 5705 5709 5713 5716 5720 5723 5725 5726 5726 5722 5753 5750 5748 5744 5745 5741 5738 5736 5732 5729 5723 5722 5721 5724 5722 5725 5733 5728 5724 5716 5720 5722 5737 5743 5738 5736 5729 5724 5720
5676 5678 5680 5684 5688 5693 5698 5703 5709 5712 5714 5718 5718 5719 5722 5731 5750 5746 5743 5740 5740 5737 5729 5735 5732 5720 5722 5715 5726 5716 5702 5716 5726 5724 5716 5716 5705 5716 5742 5743 5735 5734 5732 5728 5723
5670 5672 5675 5678 5683 5688 5693 5700 5705 5709 5712 5714 5713 5712 5711 5741 5740 5736 5735 5730 5731 5731 5727 5728 5722 5714 5712 5714 5709 5699 5701 5693 5732 5725 5707 5700 5699 5730 5742 5736 5732 5728 5727 5726 5725
5664 5666 5668 5672 5676 5680 5687 5696 5702 5706 5707 5707 5707 5705 5706 5730 5726 5729 5725 5721 5721 5720 5718 5716 5709 5703 5701 5688 5681 5696 5675 5688 5708 5720 5698 5687 5698 5739 5738 5736 5728 5724 5724 5725 5727
5656 5658 5661 5663 5667 5673 5681 5692 5698 5696 5699 5701 5702 5691 5708 5712 5718 5720 5720 5715 5708 5705 5701 5699 5689 5683 5689 5678 5665 5684 5678 5690 5694 5701 5685 5678 5689 5716 5723 5718 5715 5721 5724 5726 5726
5648 5651 5652 5655 5659 5663 5674 5685 5686 5681 5690 5695 5695 5701 5704 5705 5709 5706 5710 5705 5703 5694 5684 5688 5671 5678 5699 5693 5695 5693 5687 5679 5705 5717 5675 5680 5683 5702 5718 5715 5710 5718 5728 5728 5728
5640 5642 5643 5646 5651 5656 5658 5670 5658 5651 5655 5693 5694 5692 5700 5701 5690 5701 5706 5691 5688 5681 5681 5674 5669 5702 5700 5697 5686 5679 5674 5682 5696 5706 5683 5675 5676 5694 5701 5713 5718 5720 5727 5731 5727
5632 5634 5635 5637 5641 5648 5648 5648 5649 5649 5640 5672 5695 5688 5691 5693 5693 5698 5693 5692 5687 5677 5682 5680 5690 5696 5685 5682 5674 5682 5666 5675 5671 5685 5664 5661 5648 5672 5695 5707 5716 5725 5730 5732 5725
5623 5625 5624 5627 5630 5633 5636 5634 5637 5640 5631 5659 5669 5676 5681 5680 5673 5693 5692 5686 5678 5677 5677 5675 5693 5689 5677 5671 5673 5667 5684 5672 5667 5654 5640 5663 5628 5673 5695 5694 5701 5718 5726 5726 5726
5616 5620 5616 5613 5614 5622 5621 5622 5625 5627 5600 5664 5654 5659 5662 5662 5664 5664 5672 5670 5670 5668 5669 5675 5677 5668 5662 5678 5668 5671 5667 5661 5654 5639 5635 5636 5619 5665 5688 5682 5699 5710 5719 5728 5725
5609 5611 5609 5607 5605 5609 5609 5608 5612 5610 5594 5648 5651 5647 5644 5645 5648 5647 5650 5653 5656 5651 5655 5666 5667 5657 5664 5657 5659 5651 5649 5643 5639 5625 5602 5629 5633 5665 5672 5687 5697 5703 5707 5723 5713
5602 5604 5599 5600 5599 5595 5594 5595 5595 5594 5650 5648 5646 5645 5642 5639 5635 5634 5629 5628 5630 5623 5630 5655 5651 5655 5647 5639 5637 5638 5631 5598 5590 5585 5616 5657 5637 5671 5684 5688 5693 5698 5703 5708 5702
5594 5593 5596 5596 5590 5581 5577 5573 5578 5636 5638 5658 5643 5635 5625 5636 5628 5624 5624 5619 5624 5630 5627 5628 5633 5647 5649 5646 5637 5620 5621 5591 5586 5607 5643 5646 5629 5657 5693 5696 5695 5696 5708 5695 5690
5578 5579 5582 5583 5574 5568 5559 5540 5601 5623 5632 5626 5629 5620 5621 5624 5622 5611 5608 5623 5633 5629 5615 5624 5633 5640 5640 5638 5633 5618 5597 5629 5593 5580 5583 5645 5653 5673 5685 5682 5683 5688 5685 5678 5674
5561 5561 5576 5572 5558 5545 5536 5567 5594 5612 5609 5607 5596 5611 5614 5614 5598 5596 5605 5630 5620 5627 5635 5630 5611 5629 5608 5610 5611 5605 5617 5594 5584 5566 5565 5641 5635 5649 5659 5676 5670 5670 5668 5669 5662
5541 5546 5564 5555 5541 5527 5527 5562 5587 5599 5595 5583 5583 5579 5594 5596 5599 5600 5604 5626 5627 5623 5617 5608 5593 5595 5590 5589 5606 5584 5587 5591 5595 5587 5589 5601 5643 5661 5663 5672 5666 5659 5662 5657 5656
5529 5529 5537 5531 5518 5522 5529 5555 5571 5588 5579 5572 5568 5566 5563 5574 5575 5569 5569 5583 5607 5588 5585 5586 5573 5564 5593 5613 5606 5601 5605 5593 5584 5600 5577 5596 5636 5669 5660 5661 5657 5652 5650 5654 5652
5510 5517 5505 5510 5518 5518 5509 5534 5542 5563 5571 5562 5560 5557 5560 5554 5546 5559 5566 5594 5592 5572 5548 5549 5533 5524 5558 5582 5581 5577 5591 5590 5587 5580 5578 5580 5620 5662 5669 5653 5649 5643 5640 5639 5638
5478 5493 5483 5488 5513 5518 5517 5508 5514 5542 5541 5549 5545 5541 5535 5532 5547 5539 5551 5570 5574 5566 5542 5527 5519 5523 5526 5559 5579 5559 5567 5568 5565 5554 5578 5574 5602 5642 5642 5646 5655 5651 5634 5624 5623
5457 5476 5476 5471 5478 5496 5508 5512 5513 5510 5534 5545 5528 5534 5522 5518 5528 5524 5532 5548 5552 5547 5518 5501 5503 5508 5522 5531 5542 5544 5544 5548 5535 5544 5538 5574 5574 5610 5647 5628 5640 5632 5638 5625 5620
5433 5443 5438 5447 5460 5462 5469 5480 5495 5514 5514 5523 5513 5526 5520 5510 5530 5544 5523 5529 5538 5525 5520 5497 5496 5495 5502 5514 5518 5522 5533 5537 5548 5548 5545 5555 5565 5617 5617 5622 5622 5626 5620 5613 5609
5417 5409 5400 5426 5436 5434 5459 5464 5461 5469 5484 5491 5502 5504 5511 5516 5526 5533 5531 5526 5523 5516 5494 5488 5486 5488 5501 5510 5501 5489 5537 5558 5557 5563 5572 5555 5586 5618 5604 5610 5628 5618 5611 5609 5603